COSMOS 1174 DEB, 12354

Orbit data source: Space-Track

COSMOS 1174 DEB, 12354 is space debris in LEO originally from a launch on Fri, 18 Apr 1980 UTC launched from the Tyuratam Missile And Space Complex (TTMTR). Debris objects in space refer to the collection of defunct objects orbiting the Earth. Examples of debris include non-operational satellites, rocket bodies, and fragments generated from explosions, collisions, or faulty payload assembly.

Loading next visibility...
Identifier
12354, 1980-030Y
Orbit
LEO
Country
Flag of CISCIS
Related business
Manufacturer
Unknown
Mission
Spacecraft
Bus & Motor
Unknown
Mass
Unknown
Launch date (UTC)
1980-04-18 (46 years ago)
Launch vehicle
Unknown
Launch site
Tyuratam Missile And Space Complex (TTMTR)
Object type
Payload
Rocket body
Debris
Shape & HBR
Unknown shape, 0.2 m
Radar Cross Section
Small (<0.1 m²)

Expand to show TLE details & history
Last TLE update: 11 hours ago

TLE from 11 hours ago
0 COSMOS 1174 DEB
1 12354U 80030Y   26094.22760062  .00014733  00000-0  53452-3 0  9992
2 12354  66.1000  60.2317 0308484 278.2417  78.3837 14.93833253385976
Epoch: 2026-04-04T05:27Z
TLE epoch observation values (Epoch: 2026-04-04T05:27:44.693Z)
Latitude
-0.00005°
Longitude
145.74506°
Altitude
551.272 km
Speed
7.607 km/s
True Right ascension
04h 00m 55s
True Declination
0° 00' 00"
Sunlit
Object was in daylight at epoch
Visualization orbit readout
Latitude
Unknown
Longitude
Unknown
Altitude
Unknown
Speed
Unknown
Apparent Right ascension
Unknown
Apparent Declination
Unknown
Sunlit
N/A
Visualization observer readout
Local Sidereal Time
22:12:24
Azimuth
Unknown
Elevation
Unknown
Doppler factor
Unknown
Orbital elements
Apogee altitude
799.177 km
Perigee altitude
369.611 km
Semi-major axis
6,962.531 km
Eccentricity
0.03085
Inclination
66.1°
RAAN
60.2317°
Arg. of periapsis
278.2417°
True anomaly
81.87119°
Mean anomaly
78.3837°
Eccentric anomaly
80.125°
Mean motion
3.73588 °/min
Orbital period
96.36 mins
BSTAR
0.00053452
Loading maneuver chart data...
Computing Atmospheric mass density...

Documentation

Showing up to 5 results
|